| time (UTC) | temp F | wind direction | speed knots | gust knots | rain 1hr in | rain 24hr in | rain mn in | humidity % | barometer mb |
| 20260906220716 | 72 | 51 | 0.9 | 4.3 | 0.01 | 0.45 | 0.45 | 69 | 1014.3 |
| 20260906220215 | 71 | 51 | 1.7 | 4.3 | 0.01 | 0.45 | 0.45 | 70 | 1014.3 |
| 20260906215715 | 71 | 51 | 2.6 | 4.3 | 0.02 | 0.45 | 0.45 | 70 | 1014.3 |
| 20260906215212 | 71 | 50 | 1.7 | 4.3 | 0.02 | 0.45 | 0.45 | 70 | 1014.4 |
| 20260906214942 | 71 | 50 | 1.7 | 3.5 | 0.02 | 0.45 | 0.45 | 72 | 1014.7 |
| 20260906214211 | 71 | 50 | 0.9 | 3.5 | 0.02 | 0.45 | 0.45 | 72 | 1014.6 |
| 20260906213712 | 71 | 50 | 0.9 | 3.5 | 0.03 | 0.45 | 0.45 | 71 | 1014.5 |
| 20260906213207 | 71 | 50 | 1.7 | 3.5 | 0.03 | 0.45 | 0.45 | 70 | 1014.7 |
| 20260906212707 | 71 | 50 | 2.6 | 4.3 | 0.03 | 0.45 | 0.45 | 69 | 1014.8 |
| 20260906212208 | 70 | 50 | 2.6 | 5.2 | 0.02 | 0.44 | 0.44 | 71 | 1014.9 |
| 20260906211708 | 70 | 49 | 1.7 | 5.2 | 0.02 | 0.44 | 0.44 | 73 | 1015.1 |
| 20260906211216 | 70 | 49 | 0.9 | 4.3 | 0.02 | 0.44 | 0.44 | 73 | 1014.9 |
| 20260906210704 | 69 | 49 | 0.9 | 2.6 | 0.02 | 0.44 | 0.44 | 73 | 1015.2 |
| 20260906210203 | 69 | 49 | 0.9 | 4.3 | 0.01 | 0.43 | 0.44 | 74 | 1015.1 |
| 20260906205703 | 69 | 49 | 1.7 | 4.3 | 0.01 | 0.43 | 0.43 | 75 | 1015.3 |
| 20260906205159 | 69 | 49 | 2.6 | 5.2 | 0.01 | 0.43 | 0.43 | 75 | 1015.3 |
| 20260906204659 | 69 | 49 | 3.5 | 7.0 | 0.01 | 0.43 | 0.43 | 75 | 1015.1 |
| 20260906204159 | 69 | 48 | 4.3 | 7.8 | 0.01 | 0.43 | 0.43 | 75 | 1015.3 |
| 20260906203659 | 68 | 26 | 5.2 | 7.8 | 0.01 | 0.42 | 0.42 | 75 | 1015.7 |
| 20260906203153 | 68 | 50 | 3.5 | 7.8 | 0.01 | 0.42 | 0.42 | 75 | 1015.9 |
| 20260906202656 | 68 | 74 | 1.7 | 6.1 | 0.01 | 0.42 | 0.42 | 74 | 1016.2 |
| 20260906202156 | 68 | 74 | 2.6 | 6.1 | 0.01 | 0.42 | 0.42 | 75 | 1016.1 |
| 20260906201655 | 68 | 74 | 2.6 | 9.6 | 0.02 | 0.42 | 0.42 | 75 | 1016.0 |
| 20260906201151 | 68 | 74 | 4.3 | 9.6 | 0.02 | 0.42 | 0.42 | 75 | 1015.9 |
| 20260906200651 | 68 | 72 | 5.2 | 11.3 | 0.03 | 0.42 | 0.42 | 75 | 1015.8 |
| 20260906200151 | 68 | 83 | 6.1 | 11.3 | 0.03 | 0.42 | 0.42 | 75 | 1015.6 |
| 20260906195651 | 68 | 80 | 5.2 | 9.6 | 0.04 | 0.42 | 0.42 | 76 | 1015.9 |
| 20260906195147 | 68 | 99 | 4.3 | 7.8 | 0.05 | 0.42 | 0.42 | 77 | 1016.2 |
| 20260906194647 | 69 | 107 | 3.5 | 7.8 | 0.07 | 0.42 | 0.42 | 76 | 1016.2 |
| 20260906194147 | 69 | 121 | 1.7 | 6.1 | 0.09 | 0.42 | 0.42 | 76 | 1016.3 |
| 20260906193647 | 68 | 122 | 0.9 | 4.3 | 0.09 | 0.41 | 0.41 | 77 | 1016.4 |
| 20260906193414 | 68 | 122 | 1.7 | 4.3 | 0.11 | 0.41 | 0.41 | 79 | 1016.4 |
| 20260906192916 | 67 | 122 | 2.6 | 4.3 | 0.12 | 0.41 | 0.41 | 80 | 1016.4 |
| 20260906192144 | 67 | 122 | 2.6 | 4.3 | 0.13 | 0.41 | 0.41 | 82 | 1016.8 |
| 20260906191644 | 67 | 122 | 2.6 | 4.3 | 0.13 | 0.40 | 0.40 | 82 | 1017.1 |
| 20260906191138 | 68 | 122 | 1.7 | 3.5 | 0.15 | 0.40 | 0.40 | 82 | 1017.5 |
| 20260906190640 | 68 | 122 | 1.7 | 3.5 | 0.16 | 0.39 | 0.39 | 82 | 1017.5 |
| 20260906190139 | 68 | 122 | 2.6 | 4.3 | 0.18 | 0.39 | 0.39 | 82 | 1017.4 |
| 20260906185640 | 68 | 122 | 1.7 | 4.3 | 0.19 | 0.38 | 0.38 | 82 | 1017.3 |
| 20260906185136 | 68 | 122 | 0.0 | 3.5 | 0.22 | 0.37 | 0.37 | 83 | 1017.8 |
| 20260906184636 | 68 | 122 | 0.9 | 1.7 | 0.22 | 0.35 | 0.35 | 83 | 1017.7 |
| 20260906184138 | 68 | 123 | 0.9 | 2.6 | 0.20 | 0.33 | 0.34 | 83 | 1017.7 |
| 20260906183635 | 67 | 123 | 0.0 | 2.6 | 0.20 | 0.32 | 0.32 | 84 | 1017.7 |
| 20260906183131 | 67 | 122 | 0.9 | 2.6 | 0.19 | 0.30 | 0.30 | 84 | 1017.7 |
| 20260906182902 | 67 | 122 | 0.9 | 3.5 | 0.19 | 0.29 | 0.29 | 84 | 1017.6 |
| 20260906182131 | 68 | 123 | 1.7 | 3.5 | 0.20 | 0.28 | 0.28 | 84 | 1017.2 |
| 20260906181631 | 68 | 122 | 0.9 | 3.5 | 0.20 | 0.27 | 0.27 | 84 | 1017.2 |
| 20260906180627 | 67 | 123 | 0.0 | 1.7 | 0.17 | 0.23 | 0.24 | 84 | 1017.6 |
| 20260906180359 | 67 | 123 | 0.0 | 1.7 | 0.16 | 0.21 | 0.21 | 83 | 1017.7 |
| 20260906175624 | 67 | 123 | 0.0 | 1.7 | 0.14 | 0.19 | 0.19 | 83 | 1017.6 |
| 20260906175122 | 68 | 123 | 0.0 | 1.7 | 0.11 | 0.15 | 0.15 | 83 | 1017.5 |
| 20260906174854 | 67 | 123 | 0.0 | 1.7 | 0.09 | 0.13 | 0.13 | 83 | 1017.5 |
| 20260906174354 | 68 | 123 | 0.0 | 1.7 | 0.09 | 0.13 | 0.13 | 82 | 1017.2 |
| 20260906173623 | 68 | 123 | 0.0 | 1.7 | 0.08 | 0.12 | 0.12 | 83 | 1017.0 |
| 20260906173119 | 68 | 123 | 0.9 | 3.5 | 0.07 | 0.11 | 0.11 | 82 | 1016.9 |
| 20260906172619 | 69 | 123 | 1.7 | 3.5 | 0.07 | 0.10 | 0.10 | 81 | 1017.0 |
| 20260906172120 | 69 | 121 | 0.9 | 3.5 | 0.05 | 0.08 | 0.08 | 81 | 1017.1 |
| 20260906171620 | 69 | 121 | 1.7 | 2.6 | 0.04 | 0.07 | 0.07 | 81 | 1017.0 |
| 20260906171346 | 69 | 121 | 0.9 | 4.3 | 0.03 | 0.06 | 0.07 | 80 | 1016.9 |
| 20260906170846 | 69 | 121 | 0.0 | 4.3 | 0.03 | 0.06 | 0.06 | 80 | 1016.6 |
| 20260906170122 | 69 | 120 | 0.0 | 0.9 | 0.02 | 0.05 | 0.05 | 80 | 1016.4 |
| 20260906165615 | 69 | 120 | 0.0 | 0.0 | 0.02 | 0.05 | 0.05 | 79 | 1016.2 |
| 20260906165110 | 69 | 120 | 0.0 | 0.0 | 0.01 | 0.04 | 0.04 | 79 | 1016.0 |
| 20260906164612 | 69 | 120 | 0.0 | 1.7 | 0.01 | 0.04 | 0.04 | 78 | 1016.0 |
| 20260906164111 | 69 | 120 | 0.0 | 1.7 | 0.02 | 0.04 | 0.04 | 79 | 1016.1 |
| 20260906163612 | 69 | 120 | 0.0 | 1.7 | 0.02 | 0.04 | 0.04 | 79 | 1015.9 |
| 20260906163107 | 69 | 120 | 0.9 | 2.6 | 0.02 | 0.04 | 0.04 | 78 | 1015.8 |
| 20260906162838 | 69 | 120 | 0.9 | 2.6 | 0.01 | 0.03 | 0.03 | 78 | 1015.8 |
| 20260906162107 | 69 | 120 | 0.9 | 3.5 | 0.01 | 0.03 | 0.03 | 78 | 1015.8 |
| 20260906161840 | 69 | 120 | 1.7 | 7.8 | 0.01 | 0.03 | 0.03 | 78 | 1015.8 |
| 20260906161104 | 69 | 120 | 2.6 | 7.8 | 0.01 | 0.03 | 0.03 | 77 | 1015.8 |
| 20260906160834 | 69 | 103 | 1.7 | 6.1 | 0.02 | 0.03 | 0.03 | 77 | 1015.7 |
| 20260906160116 | 69 | 102 | 1.7 | 6.1 | 0.02 | 0.03 | 0.03 | 77 | 1015.6 |
| 20260906155603 | 69 | 100 | 1.7 | 6.1 | 0.02 | 0.03 | 0.03 | 76 | 1015.6 |
| 20260906155058 | 70 | 97 | 3.5 | 7.8 | 0.02 | 0.03 | 0.03 | 75 | 1015.3 |
| 20260906154559 | 70 | 96 | 3.5 | 8.7 | 0.02 | 0.03 | 0.03 | 74 | 1015.1 |
| 20260906154059 | 70 | 79 | 3.5 | 7.8 | 0.01 | 0.02 | 0.02 | 74 | 1014.7 |
| 20260906153831 | 70 | 315 | 2.6 | 5.2 | 0.01 | 0.02 | 0.02 | 75 | 1014.9 |
| 20260906153055 | 70 | 313 | 2.6 | 5.2 | 0.01 | 0.02 | 0.02 | 75 | 1014.9 |
| 20260906152555 | 70 | 312 | 2.6 | 5.2 | 0.01 | 0.02 | 0.02 | 75 | 1015.1 |
| 20260906152056 | 70 | 308 | 1.7 | 5.2 | 0.01 | 0.02 | 0.02 | 75 | 1015.1 |
| 20260906151555 | 71 | 307 | 1.7 | 3.5 | 0.01 | 0.02 | 0.02 | 74 | 1015.1 |
| 20260906151051 | 71 | 307 | 0.9 | 3.5 | 0.01 | 0.02 | 0.02 | 74 | 1015.2 |
| 20260906150552 | 71 | 307 | 0.9 | 3.5 | 0.00 | 0.01 | 0.01 | 73 | 1015.1 |
| 20260906150104 | 70 | 307 | 1.7 | 3.5 | 0.00 | 0.01 | 0.01 | 72 | 1015.1 |
| 20260906145823 | 70 | 307 | 1.7 | 3.5 | 0.00 | 0.01 | 0.01 | 72 | 1015.0 |
| 20260906145048 | 70 | 307 | 2.6 | 7.0 | 0.00 | 0.01 | 0.01 | 71 | 1015.0 |
| 20260906144547 | 70 | 307 | 4.3 | 7.0 | 0.00 | 0.01 | 0.01 | 70 | 1015.0 |
| 20260906144318 | 69 | 296 | 3.5 | 7.0 | 0.01 | 0.01 | 0.01 | 70 | 1015.0 |
| 20260906143547 | 69 | 279 | 2.6 | 6.1 | 0.01 | 0.01 | 0.01 | 70 | 1015.1 |
| 20260906143043 | 69 | 261 | 1.7 | 6.1 | 0.01 | 0.01 | 0.01 | 69 | 1015.2 |
| 20260906142543 | 69 | 259 | 2.6 | 6.1 | 0.01 | 0.01 | 0.01 | 69 | 1015.2 |
| 20260906142043 | 69 | 255 | 2.6 | 7.0 | 0.01 | 0.01 | 0.01 | 68 | 1015.3 |
| 20260906141544 | 70 | 251 | 2.6 | 7.0 | 0.01 | 0.01 | 0.01 | 67 | 1015.2 |
| 20260906141039 | 70 | 248 | 1.7 | 6.1 | 0.01 | 0.01 | 0.01 | 67 | 1015.2 |
| 20260906140539 | 70 | 244 | 1.7 | 5.2 | 0.01 | 0.01 | 0.01 | 66 | 1015.2 |
| 20260906140039 | 70 | 244 | 1.7 | 4.3 | 0.01 | 0.01 | 0.01 | 65 | 1015.1 |
| 20260906135539 | 71 | 244 | 0.9 | 4.3 | 0.01 | 0.01 | 0.01 | 64 | 1015.1 |
| 20260906135035 | 71 | 243 | 0.9 | 3.5 | 0.01 | 0.01 | 0.01 | 63 | 1015.1 |
| 20260906134535 | 72 | 243 | 1.7 | 3.5 | 0.00 | 0.00 | 0.01 | 62 | 1015.0 |
| 20260906134048 | 73 | 243 | 1.7 | 7.0 | 0.00 | 0.00 | 0.00 | 61 | 1014.9 |
| 20260906133806 | 73 | 243 | 3.5 | 7.8 | 0.00 | 0.00 | 0.00 | 59 | 1014.9 |
| 20260906133033 | 73 | 242 | 2.6 | 7.8 | 0.00 | 0.00 | 0.00 | 56 | 1014.8 |
| 20260906132534 | 74 | 234 | 0.0 | 5.2 | 0.00 | 0.00 | 0.00 | 53 | 1014.7 |
| 20260906132259 | 74 | 234 | 0.0 | 0.9 | 0.00 | 0.00 | 0.00 | 51 | 1014.4 |
| 20260906131800 | 75 | 234 | 0.9 | 2.6 | 0.00 | 0.00 | 0.00 | 50 | 1014.3 |
| 20260906131028 | 76 | 234 | 2.6 | 3.5 | 0.00 | 0.00 | 0.00 | 47 | 1014.4 |
| 20260906130527 | 76 | 234 | 1.7 | 3.5 | 0.00 | 0.00 | 0.00 | 44 | 1014.4 |
| 20260906130027 | 76 | 234 | 0.9 | 2.6 | 0.00 | 0.00 | 0.00 | 41 | 1014.1 |
| 20260906125526 | 76 | 234 | 0.0 | 0.9 | 0.00 | 0.00 | 0.00 | 40 | 1013.7 |
| 20260906125024 | 76 | 234 | 0.0 | 1.7 | 0.00 | 0.00 | 0.00 | 40 | 1013.5 |
| 20260906124522 | 76 | 234 | 0.9 | 1.7 | 0.00 | 0.00 | 0.00 | 40 | 1013.4 |
| 20260906124023 | 76 | 234 | 0.0 | 1.7 | 0.00 | 0.00 | 0.00 | 40 | 1013.2 |
| 20260906123523 | 76 | 234 | 0.0 | 0.9 | 0.00 | 0.00 | 0.00 | 40 | 1013.3 |
| 20260906123018 | 76 | 234 | 0.0 | 1.7 | 0.00 | 0.00 | 0.00 | 40 | 1013.2 |
| 20260906122519 | 76 | 234 | 0.9 | 2.6 | 0.00 | 0.00 | 0.00 | 40 | 1013.2 |
| 20260906122022 | 76 | 234 | 0.9 | 2.6 | 0.00 | 0.00 | 0.00 | 40 | 1013.2 |
| 20260906121517 | 76 | 234 | 0.0 | 1.7 | 0.00 | 0.00 | 0.00 | 40 | 1013.2 |
| 20260906121248 | 76 | 234 | 0.0 | 0.9 | 0.00 | 0.00 | 0.00 | 41 | 1013.2 |
| 20260906120516 | 76 | 234 | 0.9 | 1.7 | 0.00 | 0.00 | 0.00 | 40 | 1013.1 |
| 20260906120015 | 76 | 234 | 0.9 | 1.7 | 0.00 | 0.00 | 0.00 | 40 | 1013.1 |
| 20260906115515 | 76 | 234 | 0.0 | 1.7 | 0.00 | 0.00 | 0.00 | 41 | 1013.2 |
| 20260906115013 | 75 | 234 | 0.0 | 0.0 | 0.00 | 0.00 | 0.00 | 41 | 1013.3 |
| 20260906114745 | 75 | 234 | 0.0 | 0.0 | 0.00 | 0.00 | 0.00 | 41 | 1013.3 |
| 20260906114011 | 75 | 234 | 0.0 | 0.0 | 0.00 | 0.00 | 0.00 | 41 | 1013.3 |
| 20260906113512 | 76 | 234 | 0.0 | 0.9 | 0.00 | 0.00 | 0.00 | 41 | 1013.3 |
| 20260906113237 | 76 | 234 | 0.0 | 1.7 | 0.00 | 0.00 | 0.00 | 41 | 1013.4 |
| 20260906112507 | 76 | 234 | 0.0 | 1.7 | 0.00 | 0.00 | 0.00 | 42 | 1013.4 |
| 20260906112007 | 76 | 234 | 0.0 | 0.0 | 0.00 | 0.00 | 0.00 | 43 | 1013.3 |
| 20260906111508 | 76 | 234 | 0.0 | 0.0 | 0.00 | 0.00 | 0.00 | 43 | 1013.3 |
| 20260906111003 | 76 | 234 | 0.0 | 0.0 | 0.00 | 0.00 | 0.00 | 43 | 1013.3 |
| 20260906110504 | 76 | 234 | 0.0 | 0.0 | 0.00 | 0.00 | 0.00 | 43 | 1013.3 |
| 20260906110004 | 76 | 234 | 0.0 | 0.0 | 0.00 | 0.00 | 0.00 | 43 | 1013.3 |
| 20260906105504 | 76 | 234 | 0.0 | 0.0 | 0.00 | 0.00 | 0.00 | 43 | 1013.3 |
| 20260906105003 | 76 | 234 | 0.0 | 0.0 | 0.00 | 0.00 | 0.00 | 43 | 1013.4 |
| 20260906104502 | 76 | 234 | 0.0 | 0.0 | 0.00 | 0.00 | 0.00 | 43 | 1013.3 |
| 20260906104002 | 76 | 234 | 0.0 | 0.0 | 0.00 | 0.00 | 0.00 | 43 | 1013.3 |
| 20260906103503 | 75 | 234 | 0.0 | 0.0 | 0.00 | 0.00 | 0.00 | 43 | 1013.3 |
| 20260906103235 | 75 | 234 | 0.0 | 0.0 | 0.00 | 0.00 | 0.00 | 43 | 1013.3 |
| 20260906102503 | 75 | 234 | 0.0 | 0.0 | 0.00 | 0.00 | 0.00 | 42 | 1013.4 |
| 20260906102000 | 75 | 234 | 0.0 | 0.0 | 0.00 | 0.00 | 0.00 | 42 | 1013.5 |
| 20260906101500 | 76 | 234 | 0.0 | 0.0 | 0.00 | 0.00 | 0.00 | 41 | 1013.5 |
| 20260906101001 | 76 | 234 | 0.0 | 0.0 | 0.00 | 0.00 | 0.00 | 41 | 1013.5 |
| 20260906100513 | 76 | 234 | 0.0 | 0.0 | 0.00 | 0.00 | 0.00 | 41 | 1013.4 |
| 20260906095959 | 76 | 234 | 0.0 | 0.0 | 0.00 | 0.00 | 0.00 | 41 | 1013.4 |
| 20260906095458 | 76 | 234 | 0.0 | 0.0 | 0.00 | 0.00 | 0.00 | 41 | 1013.5 |
| 20260906094957 | 76 | 234 | 0.0 | 0.0 | 0.00 | 0.00 | 0.00 | 41 | 1013.5 |
| 20260906094458 | 76 | 234 | 0.0 | 0.0 | 0.00 | 0.00 | 0.00 | 41 | 1013.6 |
| 20260906093955 | 76 | 234 | 0.0 | 0.0 | 0.00 | 0.00 | 0.00 | 41 | 1013.6 |
| 20260906093450 | 76 | 234 | 0.0 | 0.9 | 0.00 | 0.00 | 0.00 | 42 | 1013.7 |
| 20260906092945 | 76 | 234 | 0.0 | 1.7 | 0.00 | 0.00 | 0.00 | 42 | 1013.5 |
| 20260906092715 | 76 | 234 | 0.0 | 1.7 | 0.00 | 0.00 | 0.00 | 43 | 1013.5 |
| 20260906091938 | 76 | 234 | 0.0 | 0.9 | 0.00 | 0.00 | 0.00 | 43 | 1013.6 |
| 20260906091437 | 75 | 234 | 0.0 | 0.9 | 0.00 | 0.00 | 0.00 | 43 | 1013.6 |
| 20260906090934 | 75 | 234 | 0.0 | 0.9 | 0.00 | 0.00 | 0.00 | 44 | 1013.7 |
| 20260906090435 | 75 | 234 | 0.0 | 1.7 | 0.00 | 0.00 | 0.00 | 44 | 1013.7 |
| 20260906085934 | 75 | 234 | 0.0 | 1.7 | 0.00 | 0.00 | 0.00 | 44 | 1013.7 |
| 20260906085434 | 75 | 234 | 0.0 | 0.0 | 0.00 | 0.00 | 0.00 | 43 | 1013.7 |
| 20260906084934 | 75 | 234 | 0.0 | 2.6 | 0.00 | 0.00 | 0.00 | 42 | 1013.7 |
| 20260906084432 | 76 | 234 | 0.0 | 2.6 | 0.00 | 0.00 | 0.00 | 42 | 1013.8 |
| 20260906083931 | 76 | 234 | 0.0 | 2.6 | 0.00 | 0.00 | 0.00 | 42 | 1013.7 |
| 20260906083430 | 76 | 234 | 0.0 | 2.6 | 0.00 | 0.00 | 0.00 | 42 | 1013.8 |
| 20260906082930 | 75 | 234 | 0.0 | 0.0 | 0.00 | 0.00 | 0.00 | 42 | 1013.7 |
| 20260906082427 | 75 | 234 | 0.0 | 0.0 | 0.00 | 0.00 | 0.00 | 42 | 1013.7 |
| 20260906081928 | 75 | 234 | 0.0 | 0.0 | 0.00 | 0.00 | 0.00 | 43 | 1013.7 |
| 20260906081434 | 75 | 234 | 0.0 | 0.0 | 0.00 | 0.00 | 0.00 | 43 | 1013.8 |
| 20260906081152 | 75 | 234 | 0.0 | 0.0 | 0.00 | 0.00 | 0.00 | 43 | 1013.8 |
| 20260906080419 | 75 | 234 | 0.0 | 0.0 | 0.00 | 0.00 | 0.00 | 43 | 1013.7 |
| 20260906075919 | 75 | 234 | 0.0 | 0.0 | 0.00 | 0.00 | 0.00 | 43 | 1013.7 |
| 20260906075419 | 75 | 234 | 0.0 | 0.0 | 0.00 | 0.00 | 0.00 | 42 | 1013.7 |
| 20260906074921 | 75 | 234 | 0.0 | 0.0 | 0.00 | 0.00 | 0.00 | 42 | 1013.6 |
| 20260906074417 | 75 | 234 | 0.0 | 0.0 | 0.00 | 0.00 | 0.00 | 41 | 1013.7 |
| 20260906074149 | 75 | 234 | 0.0 | 0.0 | 0.00 | 0.00 | 0.00 | 41 | 1013.7 |
| 20260906073415 | 75 | 234 | 0.0 | 0.0 | 0.00 | 0.00 | 0.00 | 40 | 1013.8 |
| 20260906072913 | 75 | 234 | 0.0 | 0.0 | 0.00 | 0.00 | 0.00 | 40 | 1013.9 |
| 20260906072414 | 76 | 234 | 0.0 | 0.0 | 0.00 | 0.00 | 0.00 | 39 | 1013.8 |
| 20260906071908 | 76 | 234 | 0.0 | 0.0 | 0.00 | 0.00 | 0.00 | 38 | 1013.6 |
| 20260906071406 | 76 | 234 | 0.0 | 0.0 | 0.00 | 0.00 | 0.00 | 38 | 1013.6 |
| 20260906071135 | 76 | 234 | 0.0 | 0.0 | 0.00 | 0.00 | 0.00 | 38 | 1013.6 |
| 20260906070400 | 76 | 234 | 0.0 | 0.0 | 0.00 | 0.00 | 0.00 | 38 | 1013.6 |
| 20260906065901 | 75 | 234 | 0.0 | 0.0 | 0.00 | 0.00 | 0.00 | 38 | 1013.6 |
| 20260906065631 | 75 | 234 | 0.0 | 0.0 | 0.00 | 0.00 | 0.00 | 38 | 1013.6 |
| 20260906064900 | 76 | 234 | 0.0 | 0.0 | 0.00 | 0.00 | 0.00 | 37 | 1013.5 |
| 20260906064358 | 76 | 234 | 0.0 | 0.0 | 0.00 | 0.00 | 0.00 | 36 | 1013.5 |
| 20260906063859 | 76 | 234 | 0.0 | 0.0 | 0.00 | 0.00 | 0.00 | 36 | 1013.5 |
| 20260906063357 | 76 | 234 | 0.0 | 0.0 | 0.00 | 0.00 | 0.00 | 35 | 1013.6 |
| 20260906062854 | 76 | 234 | 0.0 | 0.0 | 0.00 | 0.00 | 0.00 | 35 | 1013.6 |
| 20260906062627 | 76 | 234 | 0.0 | 0.0 | 0.00 | 0.00 | 0.00 | 35 | 1013.6 |
| 20260906061853 | 77 | 234 | 0.0 | 0.0 | 0.00 | 0.00 | 0.00 | 35 | 1013.7 |
| 20260906061352 | 77 | 234 | 0.0 | 1.7 | 0.00 | 0.00 | 0.00 | 35 | 1013.8 |
| 20260906060852 | 77 | 234 | 0.0 | 1.7 | 0.00 | 0.00 | 0.00 | 36 | 1013.8 |
| 20260906060345 | 77 | 234 | 0.0 | 1.7 | 0.00 | 0.00 | 0.00 | 36 | 1013.8 |
| 20260906055843 | 77 | 234 | 0.9 | 1.7 | 0.00 | 0.00 | 0.00 | 37 | 1013.8 |
| 20260906055344 | 78 | 234 | 0.9 | 2.6 | 0.00 | 0.00 | 0.00 | 36 | 1013.8 |
| 20260906054339 | 78 | 234 | 0.9 | 2.6 | 0.00 | 0.00 | 0.00 | 36 | 1013.8 |
| 20260906053839 | 78 | 234 | 0.9 | 2.6 | 0.00 | 0.00 | 0.00 | 35 | 1013.7 |
| 20260906053335 | 78 | 234 | 0.0 | 2.6 | 0.00 | 0.00 | 0.00 | 35 | 1013.7 |
| 20260906052836 | 78 | 234 | 0.0 | 1.7 | 0.00 | 0.00 | 0.00 | 34 | 1013.7 |
| 20260906052334 | 78 | 234 | 0.9 | 2.6 | 0.00 | 0.00 | 0.00 | 34 | 1013.7 |
| 20260906051835 | 78 | 234 | 0.9 | 2.6 | 0.00 | 0.00 | 0.00 | 33 | 1013.6 |
| 20260906051607 | 79 | 234 | 0.0 | 0.9 | 0.00 | 0.00 | 0.00 | 32 | 1013.7 |
| 20260906051106 | 79 | 234 | 0.9 | 3.5 | 0.00 | 0.00 | 0.00 | 31 | 1013.7 |
| 20260906050617 | 79 | 234 | 1.7 | 3.5 | 0.00 | 0.00 | 0.00 | 31 | 1013.7 |
| 20260906045831 | 79 | 234 | 0.9 | 3.5 | 0.00 | 0.00 | 0.00 | 30 | 1013.6 |
| 20260906045332 | 79 | 234 | 0.0 | 1.7 | 0.00 | 0.00 | 0.00 | 30 | 1013.6 |
| 20260906044827 | 80 | 234 | 0.9 | 2.6 | 0.00 | 0.00 | 0.00 | 30 | 1013.6 |
| 20260906044327 | 80 | 234 | 0.9 | 2.6 | 0.00 | 0.00 | 0.00 | 29 | 1013.6 |
| 20260906043827 | 80 | 234 | 0.9 | 2.6 | 0.00 | 0.00 | 0.00 | 29 | 1013.6 |
| 20260906043322 | 80 | 234 | 2.6 | 5.2 | 0.00 | 0.00 | 0.00 | 28 | 1013.6 |
| 20260906042822 | 81 | 234 | 3.5 | 7.0 | 0.00 | 0.00 | 0.00 | 28 | 1013.6 |
| 20260906042555 | 81 | 234 | 3.5 | 7.0 | 0.00 | 0.00 | 0.00 | 28 | 1013.5 |
| 20260906041820 | 81 | 235 | 2.6 | 5.2 | 0.00 | 0.00 | 0.00 | 28 | 1013.4 |
| 20260906041321 | 82 | 235 | 2.6 | 6.1 | 0.00 | 0.00 | 0.00 | 27 | 1013.4 |
| 20260906040821 | 82 | 235 | 2.6 | 6.1 | 0.00 | 0.00 | 0.00 | 27 | 1013.3 |
| 20260906040319 | 82 | 234 | 2.6 | 6.1 | 0.00 | 0.00 | 0.00 | 27 | 1013.2 |
| 20260906035819 | 82 | 234 | 1.7 | 5.2 | 0.00 | 0.00 | 0.00 | 27 | 1013.2 |
| 20260906035319 | 82 | 233 | 2.6 | 6.1 | 0.00 | 0.00 | 0.00 | 27 | 1013.2 |
| 20260906035045 | 82 | 233 | 2.6 | 6.1 | 0.00 | 0.00 | 0.00 | 27 | 1013.2 |
| 20260906034315 | 82 | 232 | 3.5 | 5.2 | 0.00 | 0.00 | 0.00 | 26 | 1013.2 |
| 20260906033310 | 83 | 232 | 3.5 | 6.1 | 0.00 | 0.00 | 0.00 | 26 | 1013.2 |
| 20260906032812 | 83 | 233 | 2.6 | 6.1 | 0.00 | 0.00 | 0.00 | 25 | 1013.2 |
| 20260906032311 | 83 | 232 | 2.6 | 6.1 | 0.00 | 0.00 | 0.00 | 25 | 1013.1 |
| 20260906031808 | 83 | 232 | 3.5 | 6.1 | 0.00 | 0.00 | 0.00 | 24 | 1013.1 |
| 20260906031308 | 83 | 232 | 3.5 | 7.0 | 0.00 | 0.00 | 0.00 | 24 | 1013.1 |
| 20260906030305 | 83 | 229 | 3.5 | 7.8 | 0.00 | 0.00 | 0.00 | 25 | 1012.9 |
| 20260906025802 | 84 | 233 | 4.3 | 7.8 | 0.00 | 0.00 | 0.00 | 25 | 1012.9 |
| 20260906025306 | 84 | 232 | 4.3 | 9.6 | 0.00 | 0.00 | 0.00 | 26 | 1012.9 |
| 20260906024802 | 84 | 231 | 4.3 | 9.6 | 0.00 | 0.00 | 0.00 | 26 | 1012.9 |
| 20260906024300 | 84 | 235 | 4.3 | 8.7 | 0.00 | 0.00 | 0.00 | 27 | 1012.9 |
| 20260906024030 | 84 | 236 | 5.2 | 8.7 | 0.00 | 0.00 | 0.00 | 27 | 1012.9 |
| 20260906023253 | 85 | 229 | 4.3 | 8.7 | 0.00 | 0.00 | 0.00 | 27 | 1012.9 |
| 20260906022250 | 85 | 229 | 4.3 | 8.7 | 0.00 | 0.00 | 0.00 | 28 | 1012.8 |
| 20260906021749 | 85 | 229 | 5.2 | 8.7 | 0.00 | 0.00 | 0.00 | 28 | 1012.7 |
| 20260906021248 | 85 | 232 | 5.2 | 10.4 | 0.00 | 0.00 | 0.00 | 28 | 1012.7 |
| 20260906020746 | 86 | 224 | 5.2 | 10.4 | 0.00 | 0.00 | 0.00 | 28 | 1012.6 |
| 20260906020517 | 86 | 230 | 4.3 | 9.6 | 0.00 | 0.00 | 0.00 | 28 | 1012.6 |
| 20260906015747 | 86 | 227 | 5.2 | 8.7 | 0.00 | 0.00 | 0.00 | 27 | 1012.6 |
| 20260906015247 | 87 | 232 | 5.2 | 8.7 | 0.00 | 0.00 | 0.00 | 27 | 1012.6 |
| 20260906014743 | 87 | 224 | 4.3 | 8.7 | 0.00 | 0.00 | 0.00 | 27 | 1012.6 |
| 20260906014242 | 87 | 225 | 5.2 | 8.7 | 0.00 | 0.00 | 0.00 | 27 | 1012.5 |
| 20260906013744 | 88 | 228 | 5.2 | 8.7 | 0.00 | 0.00 | 0.00 | 28 | 1012.5 |
| 20260906013239 | 88 | 224 | 5.2 | 7.8 | 0.00 | 0.00 | 0.00 | 27 | 1012.6 |
| 20260906012738 | 88 | 226 | 5.2 | 9.6 | 0.00 | 0.00 | 0.00 | 27 | 1012.6 |
| 20260906012240 | 88 | 223 | 5.2 | 9.6 | 0.00 | 0.00 | 0.00 | 28 | 1012.6 |
| 20260906011733 | 89 | 224 | 4.3 | 7.8 | 0.00 | 0.00 | 0.00 | 27 | 1012.6 |
| 20260906011234 | 88 | 223 | 4.3 | 7.8 | 0.00 | 0.00 | 0.00 | 29 | 1012.6 |
| 20260906010732 | 88 | 222 | 4.3 | 7.8 | 0.00 | 0.00 | 0.00 | 28 | 1012.5 |
| 20260906010233 | 88 | 234 | 5.2 | 9.6 | 0.00 | 0.00 | 0.00 | 28 | 1012.5 |
| 20260906005733 | 88 | 221 | 6.1 | 9.6 | 0.00 | 0.00 | 0.00 | 28 | 1012.5 |
| 20260906005234 | 88 | 220 | 5.2 | 9.6 | 0.00 | 0.00 | 0.00 | 28 | 1012.5 |
| 20260906004733 | 89 | 226 | 6.1 | 10.4 | 0.00 | 0.00 | 0.00 | 29 | 1012.5 |
| 20260906004234 | 89 | 223 | 6.1 | 10.4 | 0.00 | 0.00 | 0.00 | 29 | 1012.6 |
| 20260906003734 | 89 | 209 | 6.1 | 11.3 | 0.00 | 0.00 | 0.00 | 28 | 1012.6 |
| 20260906003234 | 90 | 226 | 5.2 | 11.3 | 0.00 | 0.00 | 0.00 | 28 | 1012.5 |
| 20260906002732 | 90 | 226 | 5.2 | 11.3 | 0.00 | 0.00 | 0.00 | 28 | 1012.5 |
| 20260906002505 | 91 | 223 | 5.2 | 11.3 | 0.00 | 0.00 | 0.00 | 26 | 1012.3 |
| 20260906002005 | 91 | 217 | 5.2 | 9.6 | 0.00 | 0.00 | 0.00 | 26 | 1012.3 |
| 20260906001233 | 92 | 246 | 4.3 | 9.6 | 0.00 | 0.00 | 0.00 | 25 | 1012.3 |
| 20260906000733 | 92 | 261 | 3.5 | 7.8 | 0.00 | 0.00 | 0.00 | 24 | 1012.3 |
| 20260906000234 | 92 | 242 | 4.3 | 7.8 | 0.00 | 0.00 | 0.00 | 25 | 1012.2 |
| 20260905235730 | 92 | 222 | 5.2 | 9.6 | 0.00 | 0.00 | 0.00 | 25 | 1012.2 |
| 20260905235230 | 92 | 232 | 5.2 | 9.6 | 0.00 | 0.00 | 0.00 | 25 | 1012.2 |
| 20260905234730 | 93 | 244 | 5.2 | 9.6 | 0.00 | 0.00 | 0.00 | 25 | 1012.2 |
| 20260905234225 | 94 | 257 | 4.3 | 8.7 | 0.00 | 0.00 | 0.00 | 24 | 1012.2 |
| 20260905233724 | 94 | 229 | 3.5 | 8.7 | 0.00 | 0.00 | 0.00 | 24 | 1012.2 |
| 20260905233225 | 94 | 254 | 4.3 | 8.7 | 0.00 | 0.00 | 0.00 | 25 | 1012.1 |
| 20260905232722 | 93 | 255 | 4.3 | 8.7 | 0.00 | 0.00 | 0.00 | 24 | 1012.2 |
| 20260905232223 | 93 | 218 | 4.3 | 7.8 | 0.00 | 0.00 | 0.00 | 22 | 1012.2 |
| 20260905231724 | 93 | 216 | 5.2 | 9.6 | 0.00 | 0.00 | 0.00 | 23 | 1012.2 |
| 20260905231222 | 92 | 248 | 6.1 | 10.4 | 0.00 | 0.00 | 0.00 | 23 | 1012.1 |
| 20260905230722 | 93 | 227 | 6.1 | 11.3 | 0.00 | 0.00 | 0.00 | 22 | 1012.1 |
| 20260905230223 | 94 | 235 | 6.1 | 11.3 | 0.00 | 0.00 | 0.00 | 22 | 1012.2 |
| 20260905225724 | 94 | 225 | 5.2 | 12.2 | 0.00 | 0.00 | 0.00 | 21 | 1012.3 |
| 20260905225222 | 95 | 223 | 5.2 | 12.2 | 0.00 | 0.00 | 0.00 | 22 | 1012.2 |
| 20260905224723 | 95 | 257 | 4.3 | 8.7 | 0.00 | 0.00 | 0.00 | 22 | 1012.3 |
| 20260905224221 | 95 | 214 | 4.3 | 9.6 | 0.00 | 0.00 | 0.00 | 20 | 1012.3 |
| 20260905223722 | 94 | 224 | 4.3 | 9.6 | 0.00 | 0.00 | 0.00 | 21 | 1012.3 |
| 20260905223220 | 94 | 207 | 5.2 | 8.7 | 0.00 | 0.00 | 0.00 | 21 | 1012.5 |
| 20260905222721 | 95 | 226 | 4.3 | 8.7 | 0.00 | 0.00 | 0.00 | 20 | 1012.5 |
| 20260905222218 | 96 | 225 | 4.3 | 8.7 | 0.00 | 0.00 | 0.00 | 21 | 1012.5 |
| 20260905221951 | 96 | 221 | 4.3 | 8.7 | 0.00 | 0.00 | 0.00 | 19 | 1012.6 |
| 20260905221219 | 96 | 213 | 3.5 | 8.7 | 0.00 | 0.00 | 0.00 | 20 | 1012.7 |